• In Hungary
  • List of Countries
  • For 7 days
  • Water Temperature
  • Satellite Maps
  • Weather Map
  • News
  • Weather Widgets
  • user-avatar
    Login

    Hourly Weather Angoya

    Today, 20 October, Friday

    Time Temperature Precipitation Wind Pressure Humidity
    00:00 -19°C° 0 mm 2 mps 629 mmHg 76%
    01:00 -19°C° 0 mm 2 mps 629 mmHg 75%
    02:00 -19°C° 0 mm 2 mps 629 mmHg 75%
    03:00 -19°C° 0 mm 2 mps 630 mmHg 74%
    04:00 -19°C° 0 mm 2 mps 630 mmHg 73%
    05:00 -19°C° 0 mm 2 mps 630 mmHg 71%
    06:00 -19°C° 0 mm 2 mps 630 mmHg 69%
    07:00 -19°C° 0 mm 2 mps 631 mmHg 68%
    08:00 -17°C° 0 mm 2 mps 631 mmHg 63%
    09:00 -15°C° 0 mm 2 mps 632 mmHg 59%
    10:00 -13°C° 0 mm 2 mps 632 mmHg 55%
    11:00 -10°C° 0 mm 1 mps 632 mmHg 53%
    12:00 -9°C° 0 mm 1 mps 633 mmHg 51%
    13:00 -8°C° 0 mm 1 mps 633 mmHg 49%
    14:00 -10°C° 0 mm 1 mps 632 mmHg 53%
    15:00 -11°C° 0 mm 1 mps 632 mmHg 56%
    16:00 -12°C° 0 mm 1 mps 631 mmHg 60%
    17:00 -12°C° 0 mm 1 mps 631 mmHg 58%
    18:00 -15°C° 0 mm 2 mps 631 mmHg 56%
    19:00 -15°C° 0 mm 2 mps 631 mmHg 53%
    20:00 -15°C° 0 mm 2 mps 631 mmHg 51%
    21:00 -15°C° 0 mm 2 mps 631 mmHg 48%
    22:00 -15°C° 0 mm 2 mps 631 mmHg 45%
    23:00 -15°C° 0 mm 2 mps 630 mmHg 44%

    Tomorrow, 21 October, Saturday

    Time Temperature Precipitation Wind Pressure Humidity
    00:00 -15°C° 0 mm 2 mps 630 mmHg 42%
    01:00 -15°C° 0 mm 2 mps 630 mmHg 41%
    02:00 -14°C° 0 mm 2 mps 630 mmHg 41%
    03:00 -12°C° 0 mm 1 mps 630 mmHg 40%
    04:00 -12°C° 0 mm 1 mps 629 mmHg 39%
    05:00 -12°C° 0 mm 1 mps 629 mmHg 39%
    06:00 -12°C° 0 mm 1 mps 630 mmHg 38%
    07:00 -11°C° 0 mm 1 mps 630 mmHg 38%
    08:00 -9°C° 0 mm 1 mps 630 mmHg 39%
    09:00 -7°C° 0 mm 1 mps 630 mmHg 41%
    10:00 -4°C° 0 mm 1 mps 631 mmHg 42%
    11:00 -3°C° 0 mm 1 mps 631 mmHg 44%
    12:00 -3°C° 0 mm 1 mps 631 mmHg 46%
    13:00 -4°C° 0 mm 2 mps 631 mmHg 47%
    14:00 -6°C° 0 mm 2 mps 630 mmHg 49%
    15:00 -7°C° 0 mm 2 mps 630 mmHg 50%
    16:00 -9°C° 0 mm 2 mps 629 mmHg 51%
    17:00 -9°C° 0 mm 2 mps 629 mmHg 51%
    18:00 -9°C° 0 mm 2 mps 630 mmHg 51%
    19:00 -10°C° 0 mm 2 mps 630 mmHg 50%
    20:00 -10°C° 0 mm 2 mps 630 mmHg 51%
    21:00 -10°C° 0 mm 2 mps 630 mmHg 52%
    22:00 -12°C° 0 mm 2 mps 630 mmHg 53%
    23:00 -12°C° 0 mm 2 mps 629 mmHg 55%

    Day after tomorrow, 22 October, Sunday

    Time Temperature Precipitation Wind Pressure Humidity
    00:00 -12°C° 0 mm 2 mps 629 mmHg 56%
    01:00 -12°C° 0 mm 2 mps 629 mmHg 58%
    02:00 -12°C° 0 mm 2 mps 629 mmHg 59%
    03:00 -10°C° 0 mm 2 mps 629 mmHg 60%
    04:00 -10°C° 0 mm 2 mps 629 mmHg 61%
    05:00 -12°C° 0 mm 3 mps 629 mmHg 63%
    06:00 -10°C° 0 mm 3 mps 629 mmHg 65%
    07:00 -9°C° 0 mm 3 mps 629 mmHg 68%
    08:00 -8°C° 0 mm 3 mps 629 mmHg 70%
    09:00 -7°C° 0 mm 3 mps 629 mmHg 73%
    10:00 -7°C° 0 mm 4 mps 629 mmHg 76%
    11:00 -5°C° 0.1 mm 4 mps 629 mmHg 77%
    12:00 -5°C° 0.1 mm 4 mps 629 mmHg 78%
    13:00 -4°C° 0.1 mm 4 mps 629 mmHg 79%
    14:00 -5°C° 0 mm 3 mps 629 mmHg 81%
    15:00 -5°C° 0 mm 3 mps 629 mmHg 82%
    16:00 -5°C° 0 mm 2 mps 629 mmHg 84%
    17:00 -5°C° 0 mm 2 mps 629 mmHg 83%
    18:00 -6°C° 0 mm 2 mps 629 mmHg 82%
    19:00 -6°C° 0 mm 2 mps 629 mmHg 81%
    20:00 -6°C° 0 mm 2 mps 628 mmHg 80%
    21:00 -6°C° 0 mm 2 mps 628 mmHg 79%
    22:00 -6°C° 0 mm 2 mps 628 mmHg 78%
    23:00 -6°C° 0 mm 2 mps 628 mmHg 77%

    23 October, Monday

    Time Temperature Precipitation Wind Pressure Humidity
    00:00 -6°C° 0 mm 2 mps 627 mmHg 76%
    01:00 -6°C° 0 mm 2 mps 627 mmHg 75%
    02:00 -6°C° 0 mm 2 mps 627 mmHg 75%
    03:00 -5°C° 0 mm 2 mps 627 mmHg 74%
    04:00 -5°C° 0 mm 2 mps 627 mmHg 73%
    05:00 -5°C° 0 mm 2 mps 627 mmHg 73%
    06:00 -5°C° 0 mm 2 mps 627 mmHg 73%
    07:00 -5°C° 0 mm 2 mps 626 mmHg 73%
    08:00 -4°C° 0 mm 2 mps 627 mmHg 72%
    09:00 -3°C° 0 mm 2 mps 627 mmHg 72%
    10:00 -2°C° 0 mm 2 mps 627 mmHg 71%
    11:00 -1°C° 0 mm 2 mps 627 mmHg 72%
    12:00 -1°C° 0 mm 3 mps 627 mmHg 72%
    13:00 -1°C° 0 mm 3 mps 627 mmHg 73%
    14:00 -2°C° 0.1 mm 3 mps 627 mmHg 75%
    15:00 -4°C° 0.1 mm 3 mps 626 mmHg 77%
    16:00 -5°C° 0.1 mm 3 mps 626 mmHg 79%
    17:00 -4°C° 0.5 mm 2 mps 627 mmHg 82%
    18:00 -4°C° 0.5 mm 2 mps 628 mmHg 85%
    19:00 -4°C° 0.5 mm 2 mps 628 mmHg 87%
    20:00 -4°C° 0.3 mm 2 mps 628 mmHg 88%
    21:00 -4°C° 0.3 mm 2 mps 629 mmHg 89%
    22:00 -5°C° 0.3 mm 2 mps 629 mmHg 90%
    23:00 -5°C° 0.2 mm 2 mps 629 mmHg 91%

    24 October, Tuesday

    Time Temperature Precipitation Wind Pressure Humidity
    00:00 -6°C° 0.2 mm 2 mps 629 mmHg 91%
    01:00 -6°C° 0.2 mm 2 mps 629 mmHg 91%
    02:00 -6°C° 0.1 mm 2 mps 629 mmHg 91%
    03:00 -7°C° 0.1 mm 2 mps 629 mmHg 90%
    04:00 -7°C° 0.1 mm 2 mps 630 mmHg 89%
    05:00 -8°C° 0.1 mm 2 mps 630 mmHg 89%
    06:00 -8°C° 0.1 mm 2 mps 630 mmHg 89%
    07:00 -9°C° 0.1 mm 3 mps 631 mmHg 88%
    08:00 -9°C° 0 mm 3 mps 631 mmHg 83%
    09:00 -8°C° 0 mm 3 mps 631 mmHg 79%
    10:00 -8°C° 0 mm 3 mps 631 mmHg 74%
    11:00 -8°C° 0 mm 3 mps 631 mmHg 73%
    12:00 -8°C° 0 mm 3 mps 631 mmHg 72%
    13:00 -8°C° 0 mm 3 mps 631 mmHg 70%
    14:00 -9°C° 0 mm 3 mps 631 mmHg 74%
    15:00 -8°C° 0 mm 2 mps 630 mmHg 77%
    16:00 -9°C° 0 mm 2 mps 630 mmHg 81%
    17:00 -9°C° 0.2 mm 2 mps 630 mmHg 83%
    18:00 -10°C° 0.2 mm 2 mps 630 mmHg 84%
    19:00 -10°C° 0.2 mm 2 mps 630 mmHg 86%
    20:00 -9°C° 0.2 mm 1 mps 630 mmHg 86%
    21:00 -9°C° 0.2 mm 1 mps 630 mmHg 87%
    22:00 -8°C° 0.2 mm 1 mps 630 mmHg 87%
    23:00 -8°C° 0.1 mm 1 mps 629 mmHg 86%

    25 October, Wednesday

    Time Temperature Precipitation Wind Pressure Humidity
    00:00 -8°C° 0.1 mm 1 mps 629 mmHg 86%
    01:00 -8°C° 0.1 mm 1 mps 629 mmHg 85%
    02:00 -8°C° 0 mm 1 mps 629 mmHg 85%
    03:00 -9°C° 0 mm 1 mps 629 mmHg 84%
    04:00 -9°C° 0 mm 1 mps 629 mmHg 84%
    05:00 -9°C° 0 mm 1 mps 629 mmHg 83%
    06:00 -9°C° 0 mm 1 mps 628 mmHg 83%
    07:00 -9°C° 0 mm 1 mps 628 mmHg 82%
    08:00 -8°C° 0 mm 1 mps 629 mmHg 79%
    09:00 -6°C° 0 mm 1 mps 629 mmHg 77%
    10:00 -4°C° 0 mm 1 mps 629 mmHg 74%
    11:00 -3°C° 0 mm 1 mps 629 mmHg 75%
    12:00 -2°C° 0 mm 1 mps 629 mmHg 75%
    13:00 -2°C° 0 mm 1 mps 628 mmHg 76%
    14:00 -3°C° 0 mm 1 mps 628 mmHg 79%
    15:00 -3°C° 0 mm 1 mps 627 mmHg 81%
    16:00 -4°C° 0 mm 1 mps 627 mmHg 84%
    17:00 -4°C° 0 mm 1 mps 627 mmHg 84%
    18:00 -6°C° 0 mm 1 mps 626 mmHg 84%
    19:00 -7°C° 0 mm 2 mps 626 mmHg 84%
    20:00 -7°C° 0 mm 2 mps 626 mmHg 84%
    21:00 -6°C° 0 mm 2 mps 626 mmHg 84%
    22:00 -6°C° 0 mm 2 mps 625 mmHg 84%
    23:00 -6°C° 0 mm 2 mps 625 mmHg 83%
    Show more